www.pogodaiklimat.ru

Погода и климат >> Архив погоды >> Мексика >> Эмпальме


ПОГОДА в Эмпальме

  • Прогноз погоды в Эмпальме
  • Монитор погоды в Эмпальме

АРХИВ ПОГОДЫ в Эмпальме

Время (UTC), дата Ветер
(напр.,м/с)
 
Видим.   Явления Облачность Т
(С)
Тd
(С)
f
(%)
Тe
(С)
Тes
(С)
Комфортность P
(гПа)
Po
(гПа)
Тmin
(С)
Tmax
(С)
R
(мм)
R24
(мм)
S
(см)
12 19.03 штиль 0 10 км ясно +13.8 +10.3 79 +13 +13 1014.2 1012.8 +13.1 +28.5
15 19.03 штиль 0 30 км ясно +14.9 +8.1 64 +15 +19 1015.6 1014.1
18 19.03 Ю 2 30 км ясно +22.0 +12.5 55 +25 +40 комфорт 1016.3 1015.3 +13.1 +23.0
21 19.03 Ю 3 30 км ясно +24.4 +14.7 55 +27 +39 жарко 1013.8 1013.8
00 20.03 штиль 0 30 км ясно +28.2 +8.4 29 +28 +31 жарко 1015.9 1014.5 +13.1 +28.9
03 20.03 штиль 0 10 км ясно +23.0 +4.2 29 +23 +23 комфорт 1016.0 1014.7
12 20.03 штиль 0 10 км ясно +13.4 +11.0 85 +13 +13 1014.6 1013.2 +11.7 +28.9
15 20.03 СВ 2 30 км ясно +15.4 +9.7 69 +15 +18 1016.2 1014.8
18 20.03 ЮЗ 2 30 км ясно +25.0 +8.8 36 +26 +41 жарко 1016.7 1015.3 +12.0 +25.7
21 20.03 ЮЗ 6 30 км ясно +27.2 +11.3 37 +28 +34 жарко 1015.8 1014.4
00 21.03 штиль 0 30 км ясно +28.2 +6.3 25 +27 +30 жарко 1015.0 1013.6 +12.0 +28.9
03 21.03 штиль 0 10 км ясно +21.9 +5.9 35 +22 +22 комфорт 1015.7 1014.3
15 21.03 штиль 0 30 км ясно +17.8 +4.8 42 +18 +22 1017.9 1016.5
18 21.03 СЗ 2 30 км ясно +26.0 +7.3 30 +26 +41 жарко 1018.2 1016.8 +13.2 +27.0
21 21.03 ЮЗ 4 30 км ясно +28.8 +9.5 30 +29 +39 жарко 1015.7 1014.3
00 22.03 З 7 30 км 8/0
[Cs]
+23.8 +11.6 46 +25 +26 комфорт 1014.6 1013.2 +13.2 +29.5
15 22.03 С 3 30 км 8/0
[Cs]
+17.8 +7.1 49 +18 +20 1017.7 1016.3
18 22.03 С 3 30 км 10/0
[Cs]
+25.0 +5.5 29 +25 +35 комфорт 1017.9 1016.5 +14.0 +25.6
21 22.03 ЮЗ 8 30 км 6/0
[Cs]
+25.5 +4.1 25 +25 +27 комфорт 1016.4 1015.0
00 23.03 ЮЗ 5 30 км ясно +23.6 +11.8 47 +25 +27 комфорт 1015.1 1013.7 +14.0 +28.5
12 23.03 штиль 0 10 км ясно +15.4 +6.8 56 +15 +15 1015.5 1014.1 +14.7 +28.5
15 23.03 штиль 0 30 км ясно +15.2 +7.4 60 +15 +19 1018.7 1017.3
18 23.03 штиль 0 30 км ясно +24.0 +10.2 42 +25 +46 комфорт 1019.4 1018.0 +14.7 +25.0
21 23.03 ЮЗ 5 30 км ясно +26.5 +8.6 32 +27 +35 жарко 1017.3 1015.9
00 24.03 штиль 0 30 км ясно +25.4 +10.8 40 +26 +30 жарко 1016.5 1015.1 +14.7 +27.3
03 24.03 штиль 0 10 км ясно +21.2 +8.1 43 +22 +22 комфорт 1016.9 1015.4
12 24.03 штиль 0 10 км ясно +12.4 +9.5 82 +12 +12 1017.0 1015.6 +11.7 +27.3
15 24.03 штиль 0 30 км ясно +14.5 +5.8 56 +14 +19 1018.5 1017.1
18 24.03 штиль 0 30 км ясно +25.6 +4.5 26 +25 +46 комфорт 1019.0 1017.6 +10.5 +26.1
21 24.03 ЮЗ 6 30 км ясно +28.8 +6.8 25 +28 +34 жарко 1017.4 1016.0
00 25.03 штиль 0 30 км ясно +27.6 +6.9 27 +27 +30 жарко 1016.5 1015.1 +10.5 +29.5
03 25.03 штиль 0 10 км ясно +22.4 +7.9 39 +23 +23 комфорт 1017.2 1015.8
15 25.03 штиль 0 30 км 3/0
[Ci sp]
+18.8 +11.0 60 +19 +24 1017.5 1015.8
18 25.03 СЗ 2 30 км 4/0
[Ci sp]
+28.8 +5.3 22 +27 +42 жарко 1016.8 1015.4 +15.0 +29.7
21 25.03 ЮЗ 3 30 км ясно +31.2 +10.1 27 +31 +44 жарко 1014.8 1013.8
00 26.03 ЮЗ 7 30 км 6/0
[Ci sp]
+28.1 +12.1 37 +29 +30 жарко 1013.5 1012.1 +15.0 +32.5

 

Местоположение метеостанции Эмпальме (Мексика): широта 27.95 долгота -110.70 высота над уровнем моря 12 м.

В архиве по умолчанию представлена погода в Эмпальме за последнюю неделю. Архивные данные за месяц целиком и за предыдущие месяцы, начиная с января 2011 года, Вы можете получить, выбрав интересующий диапазон дат из раскрывающегося списка и нажав кнопку "Ввод!".


*Определитесь, кто Вы:
робот инопланетянин человек

Внимание! Время в таблицах - всемирное. Для получения местного времени необходимо прибавить поправку, которая равна -7 ч.

Смотрите также архив погоды в соседних городах и на ближайших метеорологических станциях:

Погода в Гуаймасе (Мексика) (18 км)
Погода в Сьюдад-Обрегоне (Мексика) (106 км)
Погода в Эрмосильо Магна (Мексика) (128 км)
Погода в Эрмосильо (Мексика) (131 км)
Погода в Санта-Розалии (Мексика) (170 км)
Погода в Лорето (Мексика) (223 км)
Погода в Чойсе (Мексика) (282 км)
Погода в Накосари де Гарсия (Мексика) (287 км)
Погода в Темосачи (Мексика) (305 км)
Погода в Альтаре (Мексика) (326 км)

Пояснения к столбцам:

Ветер - указаны скорость ветра в м/с - средняя за 10 мин, порывы в срок и между сроками (в фигурных скобках) и направление, откуда дует ветер: С - северный, СВ - северо-восточный, В - восточный, ЮВ - юго-восточный, Ю - южный, ЮЗ - юго-западный, З - западный, СЗ - северо-западный.
Видимость - горизонтальная дальность видимости в метрах или километрах. При видимости от 1 до 10 км при отсутствии осадков обычно наблюдается дымка, при ухудшении видимости до 1 км и менее - туман. В сухую погоду видимость может ухудшаться дымом, пылью или мглою.
Явления - указаны атмосферные явления, наблюдавшиеся в срок или в последний час перед сроком; фигурными скобками обозначены явления, наблюдавшиеся между сроками (за 1-3 часа до срока); квадратными скобками обозначены град или гололедные отложения с указанием их диаметра в мм.
Облачность - указаны через наклонную черту общая и нижняя облачность в баллах и высота нижней границы облаков в метрах; квадратными скобками обозначены формы облаков: Ci - перистые, Cs - перисто-слоистые, Cc - перисто-кучевые, Ac - высококучевые, As - высокослоистые, Sc - слоисто-кучевые, Ns - слоисто-дождевые, Cu - кучевые, Cb - кучево-дождевые. Подробнее классификацию облаков см. в Атласе облаков (PDF).
T - Температура воздуха - температура, измеренная на высоте 2 м над землей.
Td - Температура точки росы - температура, при понижении до которой содержащийся в воздухе водяной пар достигнет насыщения.
f - Относительная влажность воздуха - влажноcть воздуха, измеренная на высоте 2 м над землей.
Te - Эффективная температура - температура, которую ощущает одетый по сезону человек в тени. Характеристика душности погоды. При расчете учитывается влияние влажности воздуха и скорости ветра на теплоощущения человека.
Tes - Эффективная температура на солнце - температура, которую ощущает человек, с поправкой на солнечный нагрев. Характеристика знойности погоды. Зависит от высоты солнца над горизонтом, облачности и скорости ветра. Ночью, в пасмурную погоду, а также при ветре 12 м/с и более поправка равна нулю.
P - Атмосферное давление - приведенное к уровню моря атмосферное давление.
Po - Атмосферное давление - измеренное на уровне метеостанции атмосферное давление.
Tmin - Минимальная температура - минимум температуры воздуха на высоте 2 м над землей.
Tmax - Максимальная температура - максимум температуры воздуха на высоте 2 м над землей.
R - Количество осадков - Количество выпавших осадков за период времени, мм. При наведении курсора мыши на число - период времени, за который выпало указанное количество осадков.
R24 - Количество осадков - Количество выпавших осадков за 24 часа, мм.
S - Снежный покров - Высота снежного покрова, см. При наведении курсора мыши на число - состояние снежного покрова и степень покрытия местности в баллах.